Simultaneous Nadir Overpasses (SNOs) Predictions

Prediction of SNOs between AURA and NPP Satellite Orbit:

Table of predicted SNOs for the next 14.0 days since TLE Epoch: 1/6/2017
Index Date (AURA) Time (AURA) Lat,Lon (AURA) SZA (AURA ) Date (NPP) Time (NPP) Lat,Lon (NPP) SZA (NPP ) Distance(km) Time Diff (sec)
1 01/08/2017 19:08:17 79.54, 150.02 114.40 01/08/2017 19:08:10 79.53, 149.87 114.44 3.13 7
2 01/08/2017 19:57:37 -79.80, -40.43 65.98 01/08/2017 19:58:47 -79.79, -40.50 66.02 1.25 70
3 01/11/2017 10:35:21 -79.47, 97.81 65.85 01/11/2017 10:34:20 -79.48, 97.95 65.83 2.98 61
4 01/11/2017 11:24:41 79.69, -92.96 113.83 01/11/2017 11:24:58 79.69, -92.94 113.81 0.43 17
5 01/14/2017 02:51:49 -79.52,-146.00 66.31 01/14/2017 02:51:13 -79.52,-145.99 66.29 0.36 36
6 01/14/2017 03:41:10 79.70, 22.95 113.43 01/14/2017 03:41:52 79.70, 22.86 113.41 2.00 42
7 01/16/2017 19:08:17 -79.55, -29.85 66.82 01/16/2017 19:08:06 -79.55, -29.93 66.79 1.68 11
8 01/16/2017 19:57:35 79.84, 139.94 112.76 01/16/2017 19:58:41 79.85, 140.06 112.69 2.72 66
9 01/19/2017 10:35:21 79.46, -82.23 112.83 01/19/2017 10:34:17 79.47, -82.12 112.85 2.45 64




NCC Satellite Simultaneous Nadir Overpasses (SNOs) Prediction Service
